[[{"header":{"parameterUnit":"m.s-1","parameterCategory":1,"la1":30.2991,"la2":30.254,"lo1":-89.0895,"lo2":-89.0444,"dy":0.0017,"dx":0.0017,"nx":28,"ny":28,"refTime":"2025-12-04T09:00:00:Z","depth":0,"parameterNumber":2,"parameterNumberName":"U-component_of_WINDS"},"data":[0,0,0,0,0,0,0,0,0,0,0,0,0,0,0,0,0,0,0,0,0,0,0,0,0,0,0,0,0,0,0,0,0,0,0,0,0,0,0,0,0,0,0,0,0,0,0,0,0,0,0,0,0,0,0,0,0,0,-0.4138,-0.4139,0,-0.4234,-0.4235,-0.4236,-0.4244,-0.4243,-0.4242,-0.4241,-0.4341,-0.4345,-0.4348,0,0,0,0,0,0,0,0,0,0,0,0,0,-0.3965,-0.3968,-0.4138,-0.4139,-0.414,-0.4233,-0.4235,-0.4236,-0.4244,-0.4243,-0.4242,-0.424,-0.434,-0.4344,-0.4349,0,0,0,0,0,0,0,0,0,0,0,0,0,-0.4048,-0.3969,-0.4138,-0.4155,-0.4158,-0.4233,-0.4235,-0.4236,-0.4244,-0.4243,-0.4241,-0.424,-0.4338,-0.4344,-0.4349,-0.4414,0,0,-0.4366,-0.4368,0,0,0,0,0,0,0,0,-0.4043,-0.4054,-0.4152,-0.4154,-0.4157,-0.4225,-0.421,-0.4296,-0.4245,-0.4212,-0.4241,-0.4239,-0.4304,-0.4312,-0.4333,-0.4418,-0.4423,-0.4366,-0.437,-0.4372,-0.4373,0,0,0,0,0,0,0,-0.4038,-0.405,-0.4176,-0.4153,-0.4157,-0.4159,-0.417,-0.4227,-0.4265,-0.4214,-0.4215,-0.4226,-0.4305,-0.4328,-0.4336,-0.4424,-0.4366,-0.4371,-0.4374,-0.4376,-0.4567,-0.4569,0,0,0,0,0,0,-0.4028,-0.4046,-0.4173,-0.4179,-0.4095,-0.4164,-0.4175,-0.4205,-0.4265,-0.4272,-0.4228,-0.4226,-0.432,-0.433,-0.4339,-0.442,-0.4372,-0.4377,-0.438,-0.4566,-0.4568,-0.457,0,0,0,0,0,0,-0.4024,-0.4039,-0.4169,-0.4112,-0.4129,-0.4168,-0.4202,-0.4208,-0.4231,-0.4275,-0.4282,-0.4244,-0.4319,-0.4332,-0.4395,-0.4423,-0.4379,-0.4384,-0.4564,-0.4566,-0.4569,-0.458,0,0,0,0,0,0,-0.4019,-0.4038,-0.4062,-0.4113,-0.4132,-0.4222,-0.4204,-0.4211,-0.424,-0.4239,-0.4292,-0.4299,-0.4319,-0.4387,-0.4401,-0.443,-0.4389,-0.4561,-0.4565,-0.4568,-0.4577,-0.4583,-0.4587,0,0,0,0,0,-0.4013,-0.4062,-0.4064,-0.4079,-0.4163,-0.4224,-0.4235,-0.4256,-0.4242,-0.4267,-0.4296,-0.4297,-0.4418,-0.4393,-0.4409,-0.444,-0.456,-0.4564,-0.4568,-0.4575,-0.4582,-0.4587,0,0,0,0,0,0,-0.4015,-0.4069,-0.4071,-0.4138,-0.4176,-0.4225,-0.4258,-0.4262,-0.4306,-0.4303,-0.4328,-0.434,-0.4403,-0.4428,-0.44,-0.4506,-0.4487,-0.4495,-0.4488,-0.4494,-0.4499,-0.4492,-0.4393,0,0,0,0,0,-0.4023,-0.4067,-0.4112,-0.4166,-0.4185,-0.4218,-0.4245,-0.4258,-0.4299,-0.4316,-0.4348,-0.4389,-0.4436,-0.4466,-0.4512,-0.4581,-0.4593,-0.461,-0.4615,-0.4619,-0.4625,-0.4664,-0.4673,-0.4583,-0.4583,-0.4583,0,0,-0.404,-0.4075,-0.4101,-0.4168,-0.4199,-0.4245,-0.4232,-0.4281,-0.4315,-0.4323,-0.4385,-0.4411,-0.4457,-0.4524,-0.4555,-0.4547,-0.4652,-0.4624,-0.4627,-0.4631,-0.4669,-0.4678,-0.4685,-0.4586,-0.4586,-0.4585,0,0,-0.4095,-0.4125,-0.4174,-0.4206,-0.4253,-0.4274,-0.4286,-0.4334,-0.4352,-0.4414,-0.4421,-0.4462,-0.4542,-0.4576,-0.4603,-0.467,-0.4674,-0.4685,-0.4711,-0.4749,-0.4756,-0.4763,-0.4788,-0.4796,-0.4691,-0.4691,-0.4691,0,-0.4111,-0.4179,-0.4199,-0.4248,-0.4278,-0.4286,-0.4336,-0.4366,-0.4426,-0.4446,-0.4436,-0.4537,-0.4569,-0.4643,-0.466,-0.4681,-0.4696,-0.4679,-0.4753,-0.476,-0.4766,-0.479,-0.48,-0.4692,-0.4691,-0.4691,-0.4691,0,-0.4197,-0.4244,-0.4278,-0.4335,-0.4368,-0.4418,-0.4446,-0.4477,-0.4487,-0.4509,-0.4573,-0.4612,-0.4665,-0.4684,-0.4694,-0.476,-0.4754,-0.4748,-0.473,-0.4776,-0.4799,-0.4808,-0.4693,-0.4693,-0.4692,-0.4692,0,0,-0.4257,-0.4323,-0.4336,-0.4362,-0.4414,-0.4452,-0.4502,-0.4553,-0.458,-0.4621,-0.4664,-0.4732,-0.4727,-0.4758,-0.4772,-0.4805,-0.4857,-0.4795,-0.4797,-0.4806,-0.4933,-0.4938,-0.4948,-0.4859,-0.4861,-0.4862,-0.493,0,-0.4318,-0.4407,-0.4426,-0.4503,-0.4547,-0.4556,-0.4599,-0.4637,-0.4659,-0.4701,-0.4726,-0.4774,-0.4763,-0.4782,-0.4815,-0.4843,-0.4883,-0.4839,-0.49,-0.4902,-0.489,-0.496,-0.4965,-0.5027,-0.4939,-0.494,-0.4941,0,-0.4402,-0.4444,-0.4525,-0.4572,-0.4591,-0.463,-0.468,-0.4719,-0.4762,-0.4776,-0.481,-0.4821,-0.4874,-0.4852,-0.4926,-0.4896,-0.4922,-0.494,-0.4943,-0.495,-0.4925,-0.4971,-0.5047,-0.5057,-0.4956,-0.4954,-0.4953,0,-0.4439,-0.4516,-0.4574,-0.4596,-0.4652,-0.4679,-0.4704,-0.4745,-0.4775,-0.4818,-0.4838,-0.4887,-0.4914,-0.4952,-0.4976,-0.4958,-0.5048,-0.5028,-0.5063,-0.5062,-0.5082,-0.5081,-0.5165,-0.5097,-0.5097,-0.5097,-0.5097,0,-0.4506,-0.4556,-0.4591,-0.4628,-0.4683,-0.4705,-0.476,-0.4785,-0.4821,-0.4863,-0.4873,-0.4912,-0.494,-0.4984,-0.5003,-0.5062,-0.5074,-0.5087,-0.5092,-0.5087,-0.5085,-0.5106,-0.5102,-0.51,-0.5099,-0.5099,-0.5098,0,-0.4557,-0.4583,-0.4647,-0.4694,-0.4707,-0.4747,-0.4787,-0.4823,-0.4846,-0.4898,-0.4912,-0.4948,-0.4999,-0.5026,-0.509,-0.5103,-0.517,-0.5171,-0.5155,-0.5157,-0.519,-0.5187,-0.5292,-0.5307,-0.5228,-0.5228,-0.5229,0,-0.4599,-0.4637,-0.4688,-0.4716,-0.4741,-0.4787,-0.4817,-0.484,-0.4872,-0.4923,-0.4953,-0.5005,-0.5048,-0.513,-0.5162,-0.5211,-0.5215,-0.5248,-0.5222,-0.5217,-0.5217,-0.5215,-0.5219,-0.5253,-0.5254,-0.5254,-0.5255,0,-0.4671,-0.4682,-0.4725,-0.4773,-0.4809,-0.4848,-0.4886,-0.4909,-0.4938,-0.4973,-0.5026,-0.5059,-0.5124,-0.5176,-0.5228,-0.5254,-0.526,-0.5262,-0.5273,-0.5269,-0.5258,-0.5266,-0.5169,-0.526,-0.526,-0.5259,-0.5259,-0.5259,-0.4719,-0.4754,-0.4795,-0.4843,-0.4874,-0.491,-0.4946,-0.4973,-0.5017,-0.5071,-0.5082,-0.5138,-0.518,-0.525,-0.5278,-0.5322,-0.5316,-0.5331,-0.5335,-0.5339,-0.5341,-0.525,-0.5332,-0.5332,-0.5331,-0.5331,-0.5331,0,-0.4793,-0.482,-0.4863,-0.4917,-0.4955,-0.4955,-0.4998,-0.503,-0.5079,-0.5117,-0.5159,-0.5219,-0.5269,-0.5305,-0.5356,-0.5385,-0.5389,-0.5398,-0.5397,-0.5403,-0.5343,-0.5329,-0.5394,-0.5394,-0.5394,-0.5394,-0.5394,-0.5394,-0.4835,-0.4894,-0.491,-0.4984,-0.5011,-0.5065,-0.5089,-0.5123,-0.5154,-0.522,-0.5262,-0.5284,-0.5322,-0.5376,-0.5422,-0.5432,-0.5451,-0.546,-0.5469,-0.5413,-0.5407,-0.54,-0.5388,-0.5463,-0.5463,-0.5525,-0.5526,-0.5526]},{"header":{"parameterUnit":"m.s-1","parameterCategory":1,"la1":30.2991,"la2":30.254,"lo1":-89.0895,"lo2":-89.0444,"dy":0.0017,"dx":0.0017,"nx":28,"ny":28,"refTime":"2025-12-04T09:00:00:Z","depth":0,"parameterNumber":3,"parameterNumberName":"V-component_of_WINDS"},"data":[0,0,0,0,0,0,0,0,0,0,0,0,0,0,0,0,0,0,0,0,0,0,0,0,0,0,0,0,0,0,0,0,0,0,0,0,0,0,0,0,0,0,0,0,0,0,0,0,0,0,0,0,0,0,0,0,0,0,-2.3731,-2.3731,0,-2.3752,-2.3752,-2.3752,-2.3734,-2.3733,-2.3733,-2.3732,-2.3752,-2.3753,-2.3754,0,0,0,0,0,0,0,0,0,0,0,0,0,-2.3672,-2.3673,-2.3731,-2.3731,-2.3731,-2.3752,-2.3752,-2.3753,-2.3734,-2.3733,-2.3732,-2.3732,-2.3751,-2.3753,-2.3754,0,0,0,0,0,0,0,0,0,0,0,0,0,-2.3696,-2.3674,-2.3731,-2.3725,-2.3724,-2.3752,-2.3752,-2.3753,-2.3734,-2.3733,-2.3732,-2.3731,-2.3751,-2.3753,-2.3754,-2.3788,0,0,-2.376,-2.3761,0,0,0,0,0,0,0,0,-2.3694,-2.3698,-2.3725,-2.3725,-2.3725,-2.3739,-2.3739,-2.3765,-2.3735,-2.3731,-2.3732,-2.3731,-2.3748,-2.375,-2.3757,-2.3789,-2.379,-2.376,-2.3761,-2.3762,-2.3763,0,0,0,0,0,0,0,-2.3693,-2.3697,-2.3739,-2.3726,-2.3725,-2.372,-2.3722,-2.3744,-2.3745,-2.3731,-2.373,-2.3732,-2.3748,-2.3755,-2.3757,-2.379,-2.376,-2.3762,-2.3763,-2.3764,-2.3851,-2.3852,0,0,0,0,0,0,-2.3692,-2.3696,-2.3738,-2.374,-2.3707,-2.3722,-2.3725,-2.3736,-2.3745,-2.3746,-2.3733,-2.3731,-2.3752,-2.3755,-2.3758,-2.3798,-2.3762,-2.3764,-2.3765,-2.385,-2.3852,-2.3853,0,0,0,0,0,0,-2.3691,-2.3696,-2.3738,-2.3717,-2.3722,-2.3724,-2.3737,-2.3737,-2.3744,-2.3747,-2.3747,-2.374,-2.3752,-2.3755,-2.3781,-2.3798,-2.3765,-2.3766,-2.3849,-2.3851,-2.3852,-2.3878,0,0,0,0,0,0,-2.3689,-2.3696,-2.3709,-2.3718,-2.3723,-2.3761,-2.3738,-2.3738,-2.3747,-2.3745,-2.3754,-2.3754,-2.3751,-2.3778,-2.3783,-2.38,-2.3768,-2.3847,-2.385,-2.3852,-2.3876,-2.3881,-2.3885,0,0,0,0,0,-2.3687,-2.3715,-2.371,-2.3715,-2.374,-2.3762,-2.3765,-2.3762,-2.3749,-2.3762,-2.3764,-2.3754,-2.3796,-2.3781,-2.3786,-2.3804,-2.3846,-2.3849,-2.3852,-2.3874,-2.388,-2.3885,0,0,0,0,0,0,-2.3708,-2.3716,-2.3711,-2.3742,-2.3752,-2.3759,-2.3776,-2.3768,-2.3781,-2.3778,-2.3773,-2.3775,-2.3802,-2.3806,-2.3789,-2.3837,-2.3819,-2.3822,-2.3834,-2.3839,-2.3844,-2.3842,-2.3769,0,0,0,0,0,-2.3717,-2.3734,-2.374,-2.3768,-2.3773,-2.3773,-2.3783,-2.3779,-2.3789,-2.3792,-2.3796,-2.3805,-2.382,-2.383,-2.3844,-2.3876,-2.3877,-2.3891,-2.3896,-2.3899,-2.3903,-2.3919,-2.3925,-2.3862,-2.3862,-2.3862,0,0,-2.3734,-2.3741,-2.3752,-2.3772,-2.3779,-2.3797,-2.3777,-2.3796,-2.3809,-2.3795,-2.382,-2.3823,-2.3832,-2.3861,-2.3874,-2.3865,-2.392,-2.3903,-2.3906,-2.3907,-2.3923,-2.3929,-2.3934,-2.3864,-2.3863,-2.3863,0,0,-2.3774,-2.3782,-2.3805,-2.3813,-2.3823,-2.3824,-2.3829,-2.3838,-2.3839,-2.3864,-2.3854,-2.3868,-2.3895,-2.3902,-2.3909,-2.3952,-2.3942,-2.3956,-2.398,-2.3996,-2.4001,-2.4006,-2.402,-2.4026,-2.396,-2.396,-2.396,0,-2.3794,-2.3821,-2.3818,-2.3838,-2.3847,-2.3836,-2.3859,-2.3866,-2.3881,-2.3887,-2.3876,-2.3909,-2.3914,-2.3945,-2.3955,-2.3961,-2.3967,-2.3955,-2.4001,-2.4005,-2.4009,-2.4023,-2.4029,-2.3961,-2.3961,-2.3961,-2.3961,0,-2.3845,-2.3864,-2.3881,-2.3896,-2.3907,-2.3929,-2.3928,-2.3939,-2.3935,-2.3936,-2.3961,-2.3967,-2.3982,-2.3989,-2.3985,-2.4019,-2.4013,-2.4002,-2.3983,-2.4017,-2.403,-2.4035,-2.3964,-2.3963,-2.3963,-2.3962,0,0,-2.3899,-2.3912,-2.3918,-2.3925,-2.3936,-2.395,-2.3971,-2.3986,-2.3996,-2.4006,-2.4023,-2.4045,-2.4035,-2.4043,-2.404,-2.4054,-2.4087,-2.4041,-2.4041,-2.4049,-2.4124,-2.4132,-2.4138,-2.4081,-2.4082,-2.4083,-2.4123,0,-2.3939,-2.3977,-2.3974,-2.4009,-2.4026,-2.4015,-2.4033,-2.4041,-2.4043,-2.4057,-2.4058,-2.4074,-2.406,-2.4064,-2.4078,-2.408,-2.4102,-2.4077,-2.4096,-2.4097,-2.4093,-2.4145,-2.4153,-2.4191,-2.4128,-2.4129,-2.4129,0,-2.3992,-2.4005,-2.4041,-2.4049,-2.4056,-2.4073,-2.4086,-2.41,-2.4109,-2.4109,-2.4118,-2.4112,-2.4132,-2.4113,-2.4141,-2.4124,-2.4131,-2.4133,-2.4135,-2.4136,-2.4115,-2.4147,-2.4202,-2.4208,-2.4138,-2.4137,-2.4136,0,-2.4027,-2.4053,-2.4078,-2.4084,-2.4095,-2.4106,-2.4111,-2.4119,-2.4128,-2.414,-2.4145,-2.4159,-2.4166,-2.4177,-2.4174,-2.4161,-2.4202,-2.4183,-2.4202,-2.4202,-2.4211,-2.421,-2.4268,-2.4216,-2.4216,-2.4216,-2.4216,0,-2.4072,-2.4095,-2.4094,-2.411,-2.4134,-2.4131,-2.4155,-2.4158,-2.4166,-2.4181,-2.4172,-2.4186,-2.4182,-2.4196,-2.4194,-2.4217,-2.4221,-2.4221,-2.422,-2.4221,-2.4221,-2.4225,-2.4223,-2.4218,-2.4217,-2.4217,-2.4217,0,-2.4115,-2.4116,-2.4142,-2.415,-2.4153,-2.4171,-2.4177,-2.4191,-2.4192,-2.4211,-2.4215,-2.4217,-2.4233,-2.4231,-2.4249,-2.4248,-2.4276,-2.4272,-2.4273,-2.4272,-2.429,-2.4288,-2.4352,-2.436,-2.4305,-2.4305,-2.4306,0,-2.4144,-2.4161,-2.4171,-2.4181,-2.4186,-2.4202,-2.4212,-2.4209,-2.4219,-2.423,-2.4243,-2.4258,-2.427,-2.4296,-2.4298,-2.4312,-2.4308,-2.4329,-2.431,-2.431,-2.4307,-2.4306,-2.4307,-2.4333,-2.4334,-2.4334,-2.4335,0,-2.4194,-2.4194,-2.4208,-2.4223,-2.4234,-2.4245,-2.4255,-2.4264,-2.4262,-2.4273,-2.429,-2.4299,-2.4318,-2.4333,-2.4345,-2.4349,-2.4341,-2.4341,-2.4346,-2.4347,-2.4347,-2.4347,-2.4283,-2.4339,-2.4339,-2.4338,-2.4338,-2.4338,-2.423,-2.4245,-2.4254,-2.427,-2.4278,-2.4287,-2.4301,-2.4304,-2.4318,-2.4333,-2.433,-2.4349,-2.4356,-2.4373,-2.4378,-2.4392,-2.4384,-2.4391,-2.4393,-2.4395,-2.4397,-2.4345,-2.4394,-2.4394,-2.4394,-2.4394,-2.4394,0,-2.428,-2.4285,-2.43,-2.4315,-2.4327,-2.432,-2.433,-2.4341,-2.4358,-2.4366,-2.4378,-2.4397,-2.4411,-2.4415,-2.4428,-2.4439,-2.4435,-2.4442,-2.4441,-2.4442,-2.4403,-2.4397,-2.4445,-2.4445,-2.4445,-2.4445,-2.4445,-2.4445,-2.4307,-2.4331,-2.4332,-2.4359,-2.4364,-2.4383,-2.4389,-2.4398,-2.4405,-2.4426,-2.4438,-2.4441,-2.4447,-2.4461,-2.4474,-2.4474,-2.4479,-2.4488,-2.4487,-2.445,-2.4445,-2.444,-2.4434,-2.4489,-2.4489,-2.4524,-2.4524,-2.4525]}]]